Regional Weather Roundup
Issued by NWS Cleveland, OH

Home | Current Version | Previous Version | Graphics & Text | Print | Product List | Glossary On
Versions: 1 2 3 4 5 6 7 8 9 10 11 12 13 14 15 16 17 18 19 20 21 22 23 24 25 26 27 28 29 30 31 32 33 34 35 36 37 38 39 40 41 42 43 44 45 46 47 48 49 50
000
ASUS41 KCLE 091710
RWRCLE
OHIO REGIONAL WEATHER ROUNDUP
NATIONAL WEATHER SERVICE WILMINGTON, OH
1200 PM EST TUE FEB 09 2016

NOTE: "FAIR" INDICATES FEW OR NO CLOUDS BELOW 12,000 FEET WITH NO
SIGNIFICANT WEATHER AND/OR OBSTRUCTIONS TO VISIBILITY.

OHZ001>008-015>018-024>027-034-035-043-044-091800-
   NORTHWEST OHIO

CITY           SKY/WX    TMP DP  RH WIND       PRES   REMARKS
DEFIANCE       CLOUDY    31  22  69 W14G23    29.66R WCI  21
FINDLAY        LGT SNOW  27  23  85 W18       29.64S FOG     WCI  14
TOLEDO EXPRESS LGT SNOW  30  27  88 NW13      29.62R FOG     WCI  20
TOLEDO EXEC    LGT SNOW  32  28  85 NW8       29.62S VSB 1   WCI  25
LIMA           LGT SNOW  25  21  85 W16       29.66S FOG     WCI  12
$$

OHZ009>014-019>023-028>033-038-089-091800-
   NORTHEAST OHIO

CITY           SKY/WX    TMP DP  RH WIND       PRES   REMARKS
CLE-HOPKINS    CLOUDY    30  25  81 SW12      29.61S WCI  20
CLE-LAKEFRONT  CLOUDY    32  27  81 SW16      29.58S WCI  21
CUY CO. ARPT   CLOUDY    32  28  86 W12       29.58S WCI  23
LORAIN-ELYRIA  CLOUDY    29  24  82 W21       29.60S WCI  16
ASHTABULA      CLOUDY    32  27  81 W10       29.56S WCI  24
AKRON-CANTON   CLOUDY    29  23  78 W13       29.59R WCI  19
WOOSTER        CLOUDY    28  23  81 W13       29.61R WCI  17
MANSFIELD      CLOUDY    26  24  92 SW16      29.60S WCI  14
YOUNGSTOWN     FLURRIES  31  25  78 W13       29.57R WCI  21
$$

OHZ042-051>053-060>062-070>072-077>081-091800-
  SOUTHWEST OHIO

CITY           SKY/WX    TMP DP  RH WIND       PRES   REMARKS
CINC-COVINGTON LGT SNOW  23  17  78 W10       29.77S WCI  12
CINC-LUNKEN    CLOUDY    24  17  74 W16       29.80S WCI  11
HAMILTON       LGT SNOW  25  18  74 W12       29.78S WCI  14
DAYTON         CLOUDY    24  19  81 W15       29.72R WCI  11
WRIGHT-PAT AFB CLOUDY    25  18  74 W14       29.71S WCI  13
DAYTON GENERAL LGT SNOW  23  17  78 W12G21    29.72S WCI  12
WILMINGTON     LGT SNOW  22  18  85 W15       29.71S FOG     WCI   9
$$

OHZ036-037-039>041-045>050-054>059-063>069-073>076-082>088-091800-
  CENTRAL AND SOUTHEAST OHIO

CITY           SKY/WX    TMP DP  RH WIND       PRES   REMARKS
COLUMBUS       LGT SNOW  24  20  84 W10       29.69R WCI  14
OSU AIRPORT    CLOUDY    26  20  77 W15G22    29.67S WCI  14
BOLTON FIELD   CLOUDY    25  21  86 W12G17    29.70R WCI  14
RICKENBACK AFB LGT SNOW  24  21  89 W10G18    29.71S WCI  13
NEWARK         CLOUDY    24  19  81 MISG      29.68R
MARION         CLOUDY    27  19  72 W13       29.65S WCI  16
LANCASTER      LGT SNOW  23  18  81 W15       29.70S WCI  10
ZANESVILLE     LGT SNOW  26  20  77 W9        29.68R WCI  17
NEW PHILLY     CLOUDY    27  22  81 SW9       29.64R WCI  18
$$



USA.gov is the U.S. government's official web portal to all federal, state and local government web resources and services.